Regional Weather Roundup
Issued by NWS

Home | Current Version | Previous Version | Graphics & Text | Print | Product List | Glossary On
Versions: 1 2 3 4 5 6 7 8 9 10 11 12 13 14 15 16 17 18 19 20 21 22 23 24 25 26 27 28 29 30 31 32 33 34 35 36 37 38 39 40 41 42 43 44 45 46 47 48 49 50
000
ASUS43 KMPX 251801
RWRMN
WEATHER ROUNDUP FOR MINNESOTA
NATIONAL WEATHER SERVICE TWIN CITIES/CHANHASSEN MN
100 PM CDT MON MAY 25 2015


NOTE: "FAIR" INDICATES FEW OR NO CLOUDS BELOW 12,000 FEET WITH NO
SIGNIFICANT WEATHER AND/OR OBSTRUCTIONS TO VISIBILITY. N/A MEANS
CURRENT SKY AND/OR WEATHER CONDITIONS ARE NOT AVAILABLE.

MNZ060>063-068>070-251900-
   Twin Cities Metro

CITY           SKY/WX    TMP DP  RH WIND       PRES   REMARKS
TWIN CITIES    PTSUNNY   66  58  75 SW12      29.71R
6HR MIN TEMP:  57; 6HR MAX TEMP:  66;

ST PAUL        CLOUDY    66  58  75 W16       29.71S
CRYSTAL        CLOUDY    64  57  78 SW16      29.69S
BLAINE         CLOUDY    64  61  88 SW10G20   29.70R
LAKEVILLE      CLOUDY    64  57  77 SW10      29.72R
EDEN PRAIRIE   CLOUDY    65  58  78 SW12G25   29.70S
6HR MIN TEMP:  59; 6HR MAX TEMP:  66;

SOUTH ST PAUL  CLOUDY    67  58  72 SW13G18   29.71R
LAKE ELMO      CLOUDY    64  59  82 SW13G23   29.72S
$$
MNZ001>005-007-008-013>017-022>024-027-028-251900-
   Northwest Minnesota

CITY           SKY/WX    TMP DP  RH WIND       PRES   REMARKS
BEMIDJI        LGT RAIN  58  55  90 N6        29.77R
HALLOCK        CLOUDY    72  46  40 NE7       29.76S
ROSEAU         CLOUDY    72  50  46 E8        29.75S
WARROAD        CLOUDY    64  52  63 NE7       29.77S
THIEF RVR FALL CLOUDY    64  52  63 CALM      29.78R
CROOKSTON      CLOUDY    68  54  60 CALM      29.77S
FOSSTON        LGT RAIN  61  54  77 CALM      29.79F
DETROIT LAKES  RAIN      55  54  94 N9        29.76F
MOORHEAD       CLOUDY    63  55  77 NE14G25   29.78S
PARK RAPIDS    RAIN      58  55  90 N15G22    29.71S FOG
MAHNOMEN       LGT RAIN  58  54  85 NE13      29.78S
$$
MNZ006-009>011-018-025>026-251900-
   North Central Minnesota

CITY           SKY/WX    TMP DP  RH WIND       PRES   REMARKS
BAUDETTE       CLOUDY    64  55  72 SW5       29.77S
FLAG ISLAND    CLOUDY    64  48  55 CALM      29.75F
INTL FALLS     LGT RAIN  65  52  62 E3        29.77F
6HR MIN TEMP:  55; 6HR MAX TEMP:  65; 6HR PCP: TRACE;

WASKISH        DRIZZLE   63  55  77 CALM      29.77F
BIG FORK       RAIN      61  55  82 NE10      29.75F
LONGVILLE      HVY RAIN  57  55  94 N9        29.70S
GRAND RAPIDS   CLOUDY    57  54  88 NE7       29.70F
CRANE LAKE     LGT RAIN  61  55  82 CALM      29.78S
COOK           LGT RAIN  59  57  94 NE3       29.75F
WALKER         RAIN      56  55  97 N3        29.74R
$$
MNZ012-019>021-037-251900-
   Northeast Minnesota

CITY           SKY/WX    TMP DP  RH WIND       PRES   REMARKS
DULUTH         FOG       54  53  97 E15G25    29.69S VSB 1/2
6HR MIN TEMP:  54; 6HR MAX TEMP:  59; 6HR PCP:  0.31;

ELY            RAIN      57  55  94 NE3       29.75S
HIBBING        RAIN      59  55  87 NE12      29.71R FOG
EVELETH        LGT RAIN  57  55  94 NE9       29.72R
DULUTH HARBOR  CLOUDY    46  46 100 NE13      29.70S
TWO HARBORS    LGT RAIN  59  54  82 NE21      29.67F
GRAND MARAIS     N/A     60  56  86 NE15G26   29.69F
G MARAIS ARPRT DRIZZLE   55  52  88 NE15G23   29.73F
$$
MNZ029>031-032-039>041-046>048-054>057-064-251900-
   West Central Minnesota

CITY           SKY/WX    TMP DP  RH WIND       PRES   REMARKS
FERGUS FALLS   LGT RAIN  57  55  94 NE18G35   29.72S
WHEATON        CLOUDY    57  54  88 N18G26    29.74R
MORRIS         CLOUDY    63  59  88 N14       29.68S
ALEXANDRIA     CLOUDY    60  56  86 CALM      29.69R
ELBOW LAKE     LGT RAIN  58  56  93 N16G24    29.69S
WADENA         RAIN      57  55  94 NE14      29.68S
GLENWOOD       PTSUNNY   61  57  88 W8        29.69R
APPLETON       CLOUDY    63  57  82 NW12      29.70R
BENSON         LGT RAIN  63  55  77 NW10      29.69S
ORTONVILLE     CLOUDY    61  55  82 N14       29.71S FOG
MADISON        CLOUDY    66  57  72 W10       29.71S
WILLMAR        FAIR      64  57  77 W13       29.71S
$$
MNZ033>034-036-042>043-049>051-058-059-251900-
   Central Minnesota

CITY           SKY/WX    TMP DP  RH WIND       PRES   REMARKS
ST CLOUD       CLOUDY    62  57  83 SW13      29.67R
6HR MIN TEMP:  57; 6HR MAX TEMP:  62; 6HR PCP:  0.02;

SAUK CENTRE    CLOUDY    61  57  87 W7        29.67S
PAYNESVILLE    CLOUDY    59  56  89 S12       29.69S
AITKIN         DRIZZLE   57  52  82 E5        29.66S
PINE RIVER     RAIN      57  57 100 N8        29.72F
BRAINERD       LGT RAIN  58  57  97 E5        29.67S FOG
STAPLES        DRIZZLE   57  57 100 N6        29.67S
LONG PRAIRIE   CLOUDY    57  55  94 CALM      29.68R
LITTLE FALLS   CLOUDY    59  55  88 S6        29.67R
BUFFALO        CLOUDY    64  56  78 SW8G17    29.70S
MAPLE LAKE     CLOUDY    65  59  80 SW8       29.70S
$$
MNZ037-044-045-052-053-251900-
   East Central Minnesota

CITY           SKY/WX    TMP DP  RH WIND       PRES   REMARKS
PRINCETON      CLOUDY    63  61  94 S8        29.68R
MORA           RAIN      55  55 100 S5        29.69R
CAMBRIDGE      PTSUNNY   63  55  77 S13       29.67R
RUSH CITY      CLOUDY    61  59  93 SW7       29.68R
MOOSE LAKE     CLOUDY    54  54 100 NE6       29.66F FOG
HINCKLEY       CLOUDY    59  59 100 S6        29.67R FOG
CLOQUET        CLOUDY    54  52  94 E13       29.69S FOG
MCGREGOR       CLOUDY    55  54  94 E8        29.68S
$$
MNZ071>073-080-081-089-090-097-098-251900-
   Southwest Minnesota

CITY           SKY/WX    TMP DP  RH WIND       PRES   REMARKS
MONTEVIDEO     CLOUDY    64  64 100 W9        29.71S
GRANITE FALLS  CLOUDY    64  58  79 W12       29.73S
CANBY          CLOUDY    63  56  80 W8        29.73F
MARSHALL       CLOUDY    64  54  68 W15       29.72S
REDWOOD FALLS  CLOUDY    66  57  72 SW13      29.71S
OLIVIA         CLOUDY    61  55  82 W13       29.71S
WINDOM         CLOUDY    66  57  72 SW15      29.75F
WORTHINGTON    CLOUDY    68  57  68 SW16      29.75F
JACKSON        PTSUNNY   70  61  73 SW14G20   29.75F
TRACY          CLOUDY    67  59  75 W8        29.73F
SLAYTON        CLOUDY    65  58  79 SW15      29.75F
$$
MNZ065>067-074>077-082>085-091>093-251900-
   South Central Minnesota

CITY           SKY/WX    TMP DP  RH WIND       PRES   REMARKS
MANKATO        CLOUDY    66  59  77 SW20      29.74S
NEW ULM        CLOUDY    66  59  77 SW14      29.72F
ST JAMES       PTSUNNY   70  61  73 SW17G23   29.75S
FAIRMONT       PTSUNNY   70  57  64 W14       29.75F
GLENCOE        CLOUDY    65  60  85 SW8G16    29.72R
FARIBAULT      CLOUDY    66  59  77 SW15      29.73S
OWATONNA       PTSUNNY   68  59  73 SW18G24   29.75R
WASECA         CLOUDY    68  59  73 SW21      29.76S
ALBERT LEA     MOSUNNY   72  61  68 SW13G21   29.75S
$$
MNZ078>079-086>088-094>096-251900-
   Southeast Minnesota

CITY           SKY/WX    TMP DP  RH WIND       PRES   REMARKS
ROCHESTER      MOSUNNY   71  63  75 SW23G31   29.75F
6HR MIN TEMP:  62; 6HR MAX TEMP:  71; 6HR PCP: TRACE;

RED WING       CLOUDY    70  59  68 W14       29.71R
STANTON        CLOUDY    68  59  73 SW12G20   29.72R
DODGE CENTER   MOSUNNY   70  61  73 SW18G28   29.74F
WINONA         CLOUDY    72  61  68 W7        29.74S
AUSTIN         PTSUNNY   70  61  73 SW14G22   29.75F
PRESTON        PTSUNNY   69  60  74 SW14G23   29.77F
$$
ABBREVIATIONS USED IN REMARKS
   TC - TEMPERATURES IN CELSIUS
  WCI - WIND CHILL INDEX
   HX - HEAT INDEX
  VSB - VISIBILITY
$$


USA.gov is the U.S. government's official web portal to all federal, state and local government web resources and services.